Location: Colinas de Tamanaco
(10.4644°N, 66.8480°W)
Time: 11:39:57
(UTC+00:00)

Daily predictions for brighter satellites

Satellite Brightness Start Highest point End
(mag) Time Altitude Azimuth Time Altitude Azimuth Time Altitude Azimuth
Meteor 2-3 Rocket 4.3 22:57:31 10° SSW 23:03:15 69° W 23:09:00 10° N
Cosmos 1500 Rocket 3.9 23:00:30 10° SSE 23:04:34 42° E 23:08:37 10° NNE
NOSS 3-2 (C) 4.1 23:04:43 10° SSE 23:08:57 24° ESE 23:13:14 10° ENE
Gbstr 26 Del rocket 4.0 23:09:38 10° N 23:12:41 24° NE 23:15:50 10° ESE
Cosmos 1633 3.4 23:12:23 10° SSW 23:15:50 54° W 23:19:16 10° N
CZ-4 R/B 1.2 23:13:46 10° SSE 23:17:35 67° E 23:21:29 10° N
Cosmos 292 Rocket 3.7 23:14:27 10° N 23:19:09 65° ENE 23:23:52 10° SSE
ISS -1.0 23:18:16 10° W 23:20:30 17° SW 23:22:45 10° SSW
Cosmos 1867 3.8 23:15:22 10° SSW 23:20:45 78° WNW 23:26:10 10° NNE
Okean-O 2.8 23:18:28 10° S 23:22:53 77° WSW 23:27:17 10° NNW
Cosmos 1782 4.1 23:20:08 10° NNE 23:23:14 21° E 23:26:05 11° SE
USA 267 3.3 23:20:22 10° NE 23:26:49 63° SE 23:33:15 10° SSW
Cosmos 1302 Rocket 4.0 23:21:40 10° NNW 23:26:54 86° ENE 23:32:09 10° SSE
Cosmos 1328 Rocket 3.5 23:23:45 10° N 23:28:10 73° E 23:32:35 10° S
Cosmos 1805 Rocket 4.1 23:24:33 10° SSE 23:28:35 36° E 23:32:37 10° NNE
GPS 2-15 Rocket1 3.1 23:25:04 10° WSW 23:29:43 88° NNW 23:34:06 12° ENE
ATLAS 5 CENTAUR R/B 2.1 23:30:31 10° SSW 23:32:49 23° SE 23:35:09 17° ESE
CSL-04 Rocket 3.7 23:31:14 10° SSE 23:36:26 56° ENE 23:41:35 10° N
Cosmos 1954 Rocket 4.5 23:31:51 10° SSE 23:36:42 37° E 23:41:33 10° NE
Cosmos 2366 rocket 4.4 23:30:32 10° SSW 23:36:45 67° W 23:42:56 10° N
Cosmos 1933 3.7 23:34:41 10° N 23:38:44 67° W 23:42:46 10° S
DMSP B5D2-2 4.4 23:37:05 10° NNE 23:42:02 43° E 23:47:00 10° S
Ariane Rocket 4.3 23:42:56 19° E 23:43:46 20° ENE 23:47:21 10° NNE
ARGOS 3.9 23:41:22 17° SE 23:44:43 33° ENE 23:49:28 10° NNE
Cosmos 407 Rocket 4.2 23:42:42 10° SSW 23:47:56 58° WNW 23:53:09 10° N
Cosmos 1190 Rocket 4.2 23:45:06 10° SSW 23:50:19 73° WNW 23:55:33 10° N
Cosmos 2082 Rocket 2.6 23:46:30 10° SSW 23:52:09 67° WNW 23:57:48 10° N
Cosmos 1151 Rocket 4.3 23:48:42 10° NNW 23:52:44 42° W 23:56:49 10° SSW
